CELESTA (53111 NORAD) Tracking and Keplerian Element Data

This shows tracking and keplerian element data for the satellite.

Feedback or suggestion? Click here.




ElementValue
Catalog53111
NameCELESTA
Epoch Orbit376
Epoch Day255.16019017
Epoch Year2022
RAAN56.1818
Inclination70.1086
Eccentricity0.00093
Argument of Perigee227.1361
Mean Anonmoly132.8517
Mean Motion6.42544045
Decay Rate-3E-08
L11 53111U 22080G 22255.16019017 -.00000003 00000-0 00000 0 0 9997
L22 53111 70.1086 56.1818 0009300 227.1361 132.8517 6.42544045 3765

Live tracking and technical data element details for CELESTA (NORAD 53111). CELESTA can be tracked NOW for your location showing map with azimuth and elevation plus other details from your city location.

Track the satellite on the map from your city or location and see movement details for azimuth, elevation, latitude, longitude, range, height, and movement on the map or in text.







IsCatalogInMostPopularTable: catalog: 53111, numindb: 5
Update: records affected: 1



GetName: 53111 CELESTA

Hit Count: updated at: Thu, 29 Sep 2022 11:05:00 GMT